Total_Precipitation_Accumulation
0.07 0.13 0.10 0.07 0.08 0.09 0.12 0.18 0.25 0.12 0.06 0.03 0.02 0.01 0.03 0.10 0.21 0.10 0.15 0.75 1.26 0.97 0.70 0.39 0.25 0.12 0.05 0.01 0.03 0.03 0.04 0.04 0.02 0.03 0.03 0.04 0.04 0.02
0.08 0.12 0.10 0.12 0.11 0.11 0.14 0.17 0.22 0.25 0.18 0.10 0.07 0.05 0.07 0.07 0.17 0.20 0.13 0.24 0.67 0.88 0.93 0.80 0.40 0.17 0.06 0.01 0.01 0.02 0.04 0.03 0.03 0.02 0.03 0.06 0.09 0.08
0.07 0.13 0.10 0.15 0.16 0.21 0.15 0.19 0.25 0.31 0.26 0.17 0.13 0.12 0.08 0.09 0.13 0.19 0.21 0.06 0.19 0.51 0.53 0.62 0.84 0.53 0.18 0.05 0.02 0.01 0.02 0.03 0.03 0.02 0.02 0.05 0.08 0.06
0.05 0.13 0.09 0.12 0.16 0.20 0.23 0.23 0.31 0.33 0.31 0.25 0.23 0.20 0.17 0.11 0.09 0.16 0.31 0.21 0.13 0.21 0.42 0.43 0.46 0.74 0.61 0.26 0.06 0.03 0.02 0.03 0.04 0.03 0.02 0.03 0.07 0.08
0.01 0.07 0.09 0.11 0.14 0.18 0.25 0.21 0.29 0.31 0.32 0.26 0.25 0.24 0.27 0.19 0.10 0.06 0.12 0.14 0.07 0.09 0.16 0.25 0.34 0.39 0.59 0.54 0.33 0.09 0.05 0.03 0.06 0.13 0.11 0.05 0.05 0.05
0.00 0.00 0.00 0.08 0.16 0.12 0.22 0.19 0.20 0.24 0.30 0.25 0.25 0.23 0.25 0.24 0.16 0.08 0.06 0.02 0.02 0.05 0.08 0.10 0.16 0.28 0.36 0.45 0.47 0.35 0.13 0.09 0.06 0.07 0.16 0.26 0.22 0.17
0.00 0.00 0.00 0.02 0.04 0.05 0.16 0.13 0.14 0.18 0.22 0.24 0.23 0.22 0.23 0.21 0.23 0.13 0.08 0.02 0.01 0.02 0.04 0.05 0.08 0.11 0.21 0.33 0.38 0.47 0.37 0.17 0.13 0.10 0.10 0.14 0.32 0.40
0.00 0.00 0.00 0.01 0.01 0.01 0.08 0.08 0.11 0.17 0.20 0.17 0.18 0.17 0.18 0.21 0.21 0.16 0.11 0.02 0.01 0.01 0.01 0.02 0.04 0.08 0.12 0.20 0.33 0.32 0.43 0.37 0.26 0.19 0.15 0.11 0.21 0.35
0.01 0.00 0.01 0.01 0.02 0.00 0.03 0.06 0.06 0.07 0.14 0.16 0.18 0.17 0.16 0.14 0.14 0.12 0.13 0.07 0.04 0.02 0.01 0.01 0.01 0.02 0.07 0.16 0.19 0.26 0.29 0.43 0.35 0.31 0.30 0.28 0.22 0.23
0.01 0.01 0.03 0.02 0.04 0.00 0.01 0.03 0.05 0.05 0.08 0.06 0.10 0.12 0.12 0.10 0.09 0.08 0.08 0.07 0.03 0.00 0.00 0.02 0.01 0.01 0.01 0.04 0.13 0.16 0.23 0.31 0.47 0.35 0.33 0.36 0.41 0.44
0.01 0.01 0.04 0.03 0.05 0.02 0.00 0.01 0.02 0.03 0.01 0.02 0.01 0.02 0.02 0.02 0.03 0.03 0.01 0.02 0.02 0.01 0.00 0.00 0.01 0.01 0.00 0.00 0.02 0.05 0.15 0.20 0.31 0.43 0.35 0.32 0.27 0.33
0.01 0.00 0.03 0.04 0.05 0.03 0.01 0.01 0.01 0.02 0.01 0.00 0.00 0.00 0.00 0.00 0.00 0.00 0.00 0.00 0.00 0.00 0.00 0.00 0.00 0.00 0.00 0.00 0.00 0.00 0.02 0.12 0.19 0.32 0.36 0.38 0.27 0.11
0.02 0.02 0.03 0.05 0.04 0.03 0.02 0.02 0.04 0.01 0.00 0.00 0.00 0.00 0.00 0.00 0.00 0.00 0.00 0.00 0.00 0.00 0.00 0.00 0.00 0.00 0.00 0.00 0.00 0.00 0.00 0.02 0.08 0.15 0.25 0.33 0.42 0.29
0.05 0.05 0.04 0.04 0.03 0.03 0.02 0.02 0.00 0.00 0.00 0.00 0.00 0.01 0.00 0.00 0.00 0.00 0.00 0.00 0.00 0.00 0.00 0.00 0.00 0.00 0.00 0.00 0.00 0.00 0.00 0.00 0.01 0.04 0.09 0.16 0.27 0.37
0.06 0.04 0.03 0.02 0.01 0.01 0.02 0.01 0.00 0.00 0.01 0.01 0.02 0.02 0.01 0.00 0.00 0.00 0.00 0.00 0.00 0.00 0.00 0.00 0.00 0.00 0.00 0.00 0.00 0.00 0.00 0.00 0.00 0.00 0.01 0.02 0.05 0.10
0.04 0.04 0.03 0.02 0.01 0.01 0.00 0.00 0.01 0.01 0.02 0.03 0.04 0.02 0.00 0.00 0.00 0.00 0.00 0.00 0.00 0.00 0.00 0.00 0.00 0.00 0.00 0.00 0.00 0.00 0.00 0.00 0.00 0.00 0.00 0.00 0.00 0.00
0.06 0.03 0.01 0.01 0.00 0.00 0.00 0.01 0.01 0.00 0.01 0.02 0.02 0.01 0.00 0.00 0.01 0.00 0.00 0.00 0.00 0.00 0.00 0.00 0.00 0.00 0.00 0.00 0.00 0.00 0.00 0.00 0.00 0.00 0.00 0.00 0.00 0.00
0.01 0.01 0.01 0.01 0.02 0.02 0.02 0.01 0.01 0.02 0.03 0.02 0.02 0.02 0.02 0.01 0.01 0.00 0.00 0.01 0.01 0.00 0.00 0.00 0.00 0.00 0.00 0.00 0.00 0.00 0.00 0.00 0.00 0.00 0.00 0.00 0.00 0.00
0.01 0.01 0.02 0.03 0.04 0.04 0.04 0.04 0.05 0.07 0.05 0.02 0.02 0.02 0.02 0.01 0.01 0.01 0.01 0.01 0.00 0.00 0.00 0.00 0.00 0.00 0.00 0.00 0.00 0.00 0.00 0.00 0.00 0.00 0.00 0.00 0.00 0.00
0.01 0.03 0.04 0.05 0.05 0.05 0.04 0.05 0.04 0.03 0.02 0.02 0.02 0.02 0.02 0.02 0.03 0.02 0.02 0.03 0.02 0.01 0.00 0.00 0.00 0.02 0.02 0.01 0.00 0.00 0.00 0.00 0.00 0.00 0.00 0.00 0.00 0.00
0.03 0.03 0.05 0.06 0.07 0.06 0.06 0.06 0.06 0.06 0.05 0.03 0.02 0.02 0.02 0.02 0.03 0.03 0.01 0.01 0.01 0.02 0.02 0.02 0.01 0.00 0.01 0.01 0.01 0.00 0.00 0.00 0.00 0.00 0.00 0.00 0.00 0.00
0.03 0.04 0.05 0.06 0.07 0.08 0.07 0.07 0.04 0.03 0.02 0.03 0.02 0.03 0.02 0.03 0.05 0.04 0.03 0.03 0.03 0.03 0.02 0.00 0.00 0.00 0.00 0.02 0.01 0.00 0.00 0.00 0.00 0.00 0.00 0.00 0.01 0.01
0.04 0.04 0.03 0.04 0.05 0.06 0.06 0.06 0.05 0.04 0.04 0.04 0.02 0.03 0.03 0.04 0.04 0.04 0.03 0.01 0.01 0.00 0.00 0.00 0.00 0.00 0.00 0.00 0.00 0.00 0.00 0.00 0.00 0.00 0.00 0.00 0.00 0.00